FENGYUN 1C DEB

Satellite information

Favourite Embed

Satellite Type and Status

DEBRISIN ORBIT

Key statistics

Satellite FENGYUN 1C DEB at a glance.

Uptime

9609

Days in orbit

Revolutions

≈ 14.0

Per day

Orbit

SSO

Sun Synchronous Orbit

Inclination

98.9

Latest

Satellite identification and parameters

Extended collection of information and parameters for FENGYUN 1C DEB.

Object identification

Identified? True

Debris? True

Object name: FENGYUN 1C DEB

International designator: 1999-025XY

Object number (NORAD): 30263

Object ID (CCSDS): 30263

Country: PEOPLES REPUBLIC OF CHINA (PRC)

Current information (Y/N): Y

RCS size: SMALL

Orbital parameters

Period: 102.802 minutes

Inclination: 98.9179 deg

SMA: 7269.34 km

Apoapsis: 995.852 km

Periapsis: 786.558 km

RAAN: 358.7437 deg

Eccentricy: 0.01439573

Argument of periapsis: 292.2796 deg

Mean anomaly: 95.9776 deg

Mean motion: 14.00748904 rev/day

Mean motion (dot): 0.00002495 rev/day2

B* drag term: 0.001556417 1/REarth

Two-line elements (TLE)

Creation date: Aug. 29, 2025, 9:54 a.m.

Reference frame: TEME

Reference center: EARTH

Epoch: Aug. 29, 2025, 6:23 a.m. UTC

TLE line 0: 0 FENGYUN 1C DEB

TLE line 1: 1 30263U 99025XY 25241.26648780 .00002495 00000-0 15564-2 0 9997

TLE line 2: 2 30263 98.9179 358.7437 0143957 292.2796 95.9776 14.00748904945482

Live tracking on map

Real-time ground track for satellite FENGYUN 1C DEB.

In-orbit conjunctions

A list of the most updated potential collisions computed for object FENGYUN 1C DEB.

Target Orbit TCA Probability of collision Miss distance Type
DELTA 1 DEB SSO 2025-06-04 14:47:04 0.0002597404 79.0 (m) DEBRIS
CZ-6A DEB LEO 2025-02-22 17:19:34 0.0002050926 891.0 (m) DEBRIS
CZ-6A DEB LEO 2025-02-12 08:31:59 0.0001742533 912.0 (m) DEBRIS
COSMOS 1275 DEB LEO 2024-12-29 14:19:52 0.0001025839 174.0 (m) DEBRIS
SCOUT G-1 DEB SSO 2024-12-12 15:49:24 0.000175227 55.0 (m) DEBRIS

Associated space launch

Chinese polar orbiting meteorological satellite

FENGYUN 1C DEB was lifted into orbit during the mission ‘Long March 4B | Feng Yun 1C’, on board a Long March 4B space rocket.

The launch took place on May 10, 1999, 1:33 a.m. from Launch Complex 7.

For more information about the launch, click the button.

Launch to space Long March 4B | Feng Yun 1C
Long March 4B | Feng Yun 1C

Agency: N/A

Status: Launch Successful

Launch date: May 10, 1999, 1:33 a.m. UTC

Rocket: Long March 4B

Launch pad: Launch Complex 7

Location: Taiyuan Satellite Launch Center, People's Republic of China

...

Latest news about this satellite

There are no fresh news available about this satellite. Check back as we update our databases every day.


Newsletter sign-up

Weekly statistics, charts and insights to help you stay on top of the space industry.